Location: Asheville, NC
(35.6000°N, 82.5500°W)
Time: 20:25:03
(UTC-04:00)

Vanguard 2 - Pass Details

Date: 16 March 2018
Orbit: 554 x 2939 km, 32.9° (Epoch: 24 June)

Event Time Altitude Azimuth Distance (km) Brightness Sun altitude
Rises 19:26:27 0° 278° (W) 6,724 14.6 1.6°
Reaches altitude 10° 19:33:54 10° 260° (W) 5,452 14.0 0.1°
Maximum altitude 19:41:33 15° 231° (SW) 4,565 12.3 -1.4°
Drops below altitude 10° 19:48:06 10° 200° (SSW) 4,502 11.7 -2.7°
Sets 19:53:17 0° 179° (S) 5,013 11.7 -3.8°
